Flag for Switzerland Weather past 2 weeks in Ostermundigen, Bern, Switzerland

Now
72 °F

Partly sunny.


Feels Like: 74 °F
Forecast: 55 / 74 °F
Wind: 3 mph from North

Location: Bern / Belp

Current Time: Jul 23, 2014 at 12:44:42 PM

Latest Report: Jul 23, 2014 at 11:50 AM


Visibility: 5 mi

Pressure: 29.95 "Hg

Humidity: 73%

Dew point: 63 °F

Location of OstermundigenLocation

Historic Weather in Ostermundigen — Graph

°F

Ostermundigen temperature yesterday

Maximum temperature yesterday: 66 °F (at 12:20 PM)
Minimum temperature yesterday: 59 °F (at 12:20 AM)
Average temperature yesterday: 62 °F

Past Weeks' High & Low Weather Summary

 TemperatureHumidityPressure
High88 °F (Jul 18, 2:50 PM)100% (Jul 10, 11:20 AM)30.21 "Hg (Jul 10, 11:20 AM)
Low50 °F (Jul 10, 1:20 AM)29% (Jul 17, 6:20 PM)29.83 "Hg (Jul 10, 4:50 AM)
Average63 °F82%30.01 "Hg
* Reported Jul 8 11:20 AM — Jul 23 11:20 AM, Ostermundigen, Weather by CustomWeather, © 2014

Note: Actual official high and low records may vary slightly from our data, if they occured in-between our weather recording intervals... More about our weather records

Advertising

Ostermundigen weather history for previous 24 hours

 ConditionsComfort  
Time TempWeatherWind HumidityBarometerVisibility
11:20 AM
Jul 23
70 °FBroken clouds.2 mph78%29.95 "Hg5 mi
10:50 AM70 °FBroken clouds.5 mph78%29.95 "Hg5 mi
10:20 AM70 °FPartly sunny.2 mph78%29.95 "Hg4 mi
9:50 AM66 °FBroken clouds.1 mph88%29.95 "Hg4 mi
7:50 AM63 °FFog.2 mph94%29.98 "Hg1 mi
7:20 AM61 °FPartly sunny.1 mph100%29.98 "HgN/A
6:50 AM61 °FFog.1 mph100%29.98 "Hg2 mi
6:20 AM61 °FFog.1 mph100%29.98 "Hg2 mi
5:50 AM61 °FFog.2 mph100%29.98 "Hg1 mi
5:20 AM61 °FFog.No wind100%29.98 "Hg2 mi
4:50 AM61 °FFog.No wind100%29.98 "Hg2 mi
4:20 AM61 °FFog.2 mph94%29.98 "Hg1 mi
3:50 AM63 °FPartly cloudy.3 mph94%29.98 "Hg6 mi
3:20 AM63 °FMostly cloudy.1 mph100%30.01 "Hg4 mi
2:50 AM63 °FMostly cloudy.1 mph100%30.01 "Hg5 mi
2:20 AM63 °FPartly cloudy.1 mph100%30.01 "Hg5 mi
1:50 AM63 °FMostly cloudy.1 mph100%30.01 "Hg6 mi
6:50 PM
Jul 22
63 °FBroken clouds.1 mph100%30.01 "Hg4 mi
6:20 PM64 °FDrizzle. Fog.2 mph94%30.01 "Hg2 mi
5:50 PM64 °FLight rain. Broken clouds.2 mph94%30.01 "Hg4 mi
5:20 PM66 °FSprinkles. Broken clouds.3 mph88%30.01 "Hg6 mi
4:50 PM64 °FDrizzle. Broken clouds.2 mph94%30.01 "Hg6 mi
4:20 PM66 °FBroken clouds.2 mph88%30.01 "Hg6 mi
3:50 PM66 °FBroken clouds.3 mph88%30.01 "Hg6 mi
3:20 PM66 °FBroken clouds.3 mph88%29.98 "Hg5 mi
2:50 PM64 °FDrizzle. Broken clouds.2 mph88%30.01 "Hg4 mi
2:20 PM64 °FDrizzle. Broken clouds.5 mph88%30.01 "Hg4 mi
1:50 PM66 °FLight rain. Broken clouds.6 mph83%29.98 "Hg4 mi
1:20 PM66 °FBroken clouds.7 mph83%29.98 "Hg4 mi
12:50 PM66 °FBroken clouds.7 mph83%29.98 "HgN/A
12:20 PM66 °FBroken clouds.3 mph83%29.98 "HgN/A
Weather by CustomWeather, © 2014

See weather overviewHow to use our weather pages